Weather Roundup
Issued by NWS

Home | Current Version | Previous Version | Text Only | Print | Product List | Glossary On
Versions: 1 2 3 4 5 6 7 8 9 10 11 12 13 14 15 16 17 18 19 20 21 22 23 24 25 26 27 28 29 30 31 32 33 34 35 36 37 38 39 40 41 42 43 44 45 46 47 48 49 50
000
NZUS93 KARX 251659
HRRWXR

CURRENT HOURLY OBSERVATIONS ACROSS
MUCH OF THE UPPER MISSISSIPPI VALLEY
NATIONAL WEATHER SERVICE LA CROSSE WI
1200 PM CDT WED APR 25 2018


...SOUTHEAST MINNESOTA...


CITY           SKY/WX    TMP DP  RH WIND       PRES   REMARKS
ROCHESTER      FAIR      51  30  44 VRB3      30.19F
ROCHESTER/MAYO FAIR      50  28  41 W7        30.19F
WINONA         FAIR      52  30  43 N6        30.17F
AUSTIN         FAIR      50  36  57 N9        30.18F
ALBERT LEA     FAIR      48  28  46 NW7       30.19F
DODGE CENTER   FAIR      48  30  49 W6        30.19F
PRESTON        FAIR      50  32  50 N7        30.18F
OWATONNA       FAIR      48  32  53 W3        30.20F
FARIBAULT      NOT AVBL
$$

...ELSEWHERE IN MINNESOTA...


CITY           SKY/WX    TMP DP  RH WIND       PRES   REMARKS
MINNEAPOLIS    FAIR      50  26  39 CALM      30.21F
INTNL FALLS    FAIR      53  24  32 SW9G18    30.09F
DULUTH         FAIR      48  26  42 SW6       30.16F
RED WING       FAIR      52  23  32 W5        30.20F
REDWOOD FALLS  SUNNY     48  31  51 W9        30.23F
MANKATO        FAIR      48  30  49 N7        30.22F
WORTHINGTON    SUNNY     48  30  49 N7        30.23F
FAIRMONT       SUNNY     47  33  58 VRB5      30.22F
$$

...SOUTHWEST WISCONSIN...


CITY           SKY/WX    TMP DP  RH WIND       PRES   REMARKS
LA CROSSE      FAIR      52  33  48 NW10      30.18F
PRAIRIE DU CHI FAIR      55  31  39 NW14G20   30.15F
BOSCOBEL       FAIR      58  32  37 N8G16     30.15F
LONE ROCK      NOT AVBL
PLATTEVILLE    FAIR      55  35  47 N12       30.14F
FORT MC COY    FAIR      52  32  47 N3        30.18F
MAUSTON-NEW LI FAIR      50  31  47 N5        30.16F
VIROQUA        FAIR      51  35  53 N7        30.15F
WIS DELLS      FAIR      51  28  41 CALM      30.15F
$$

...ELSEWHERE IN WISCONSIN...


CITY           SKY/WX    TMP DP  RH WIND       PRES   REMARKS
MILWAUKEE      FAIR      47  32  56 NE17      30.12F
MADISON        FAIR      52  32  46 N7G21     30.13F
GREEN BAY      FAIR      47  32  56 N8        30.14F
EAU CLAIRE     FAIR      49  28  44 CALM      30.19F
BLACK RVR FLS  FAIR      51  25  36 N3        30.18F
MEDFORD        FAIR      43  29  58 CALM      30.16F
WAUSAU         FAIR      46  28  49 NW7       30.14F
WIS RAPIDS     FAIR      50  28  42 N6        30.16F
MARSHFIELD     FAIR      47  30  51 NW7       30.15F
RICE LAKE      FAIR      46  29  52 NW3       30.21F
$$

...NORTHEAST IOWA...


CITY           SKY/WX    TMP DP  RH WIND       PRES   REMARKS
WATERLOO       FAIR      57  32  38 NE12      30.15F
DUBUQUE        FAIR      55  33  43 E8G16     30.13F
DECORAH        FAIR      52  34  50 NW9G17    30.15F
MASON CITY     SUNNY     54  36  50 N8        30.20F
CHARLES CITY   FAIR      54  32  43 VRB5G15   30.18F
OELWEIN        FAIR      55  32  41 NE12      30.16F
$$

...ELSEWHERE IN IOWA...


CITY           SKY/WX    TMP DP  RH WIND       PRES   REMARKS
DES MOINES     CLOUDY    60  31  33 NE10      30.17F
IOWA CITY      FAIR      59  34  39 VRB6      30.15F
FORT DODGE     SUNNY     54  34  46 N9        30.20F
MARSHALLTOWN   MOSUNNY   57  30  35 VRB7      30.16F
CEDAR RAPIDS   FAIR      59  34  39 N8        30.13F
$$

...NORTHERN ILLINOIS...


CITY           SKY/WX    TMP DP  RH WIND       PRES   REMARKS
CHICAGO-OHARE  FAIR      51  30  44 NE16      30.11S
CHICAGO-MIDWAY FAIR      53  32  44 N15       30.11S
MOLINE         FAIR      60  35  39 NE14      30.12F
ROCKFORD       FAIR      56  33  42 NE10G18   30.13F
PEORIA         FAIR      59  40  49 NE9       30.11S
$$

NOTE: "FAIR" INDICATES FEW OR NO CLOUDS BELOW 12,000 FEET WITH NO
SIGNIFICANT WEATHER AND/OR OBSTRUCTIONS TO VISIBILITY. WIND
SPEEDS ARE IN MILES-PER-HOUR.




USA.gov is the U.S. government's official web portal to all federal, state and local government web resources and services.